Wind_Speed
11 12 12 12 12 12 11 11 11 11 11 11 11 11 11 11 11 12 12 12 12 12 12 13 13 13 13 13 13 13 13 13 13 13 13 13 13 13 13 13 14 14 14
13 13 13 13 12 12 12 11 11 11 11 12 11 11 11 12 12 12 12 12 12 12 13 13 14 14 14 14 14 14 14 13 13 13 14 14 14 14 14 14 14 15 15
13 13 13 13 13 13 12 11 12 11 11 11 12 11 11 11 12 12 12 12 13 13 14 14 13 14 14 14 14 14 14 13 14 13 13 14 14 15 15 15 16 16 16
13 13 13 12 12 12 12 12 12 11 11 11 11 11 11 12 12 12 13 12 13 13 14 14 13 13 13 13 14 14 14 14 14 13 13 14 14 15 15 16 16 17 17
14 14 13 13 13 13 13 13 12 12 12 12 12 12 12 12 13 13 13 12 13 13 13 13 13 13 13 13 13 14 14 14 14 14 13 14 14 15 15 16 16 17 18
14 14 14 14 14 14 14 14 13 13 13 13 13 13 13 13 13 13 13 13 13 13 13 13 13 13 13 14 14 14 14 14 14 14 14 14 14 15 16 16 17 17 18
14 14 15 15 15 15 14 14 13 13 13 14 14 14 14 14 14 13 13 14 14 14 14 14 14 14 14 14 15 14 14 14 14 14 14 14 14 15 16 16 18 18 18
14 14 14 15 15 15 15 14 13 13 14 14 14 15 15 15 15 15 14 14 15 15 15 14 15 15 14 15 14 15 15 15 14 15 15 15 16 16 16 16 18 19 19
15 14 15 15 15 15 14 14 14 14 15 15 15 15 15 15 15 15 15 15 15 15 15 15 16 16 15 15 15 15 16 15 15 15 15 16 16 16 16 17 18 19 20
15 15 15 15 15 15 14 14 15 15 15 16 16 16 16 15 15 15 15 15 16 15 15 16 17 17 16 16 16 16 16 16 16 15 15 16 16 16 17 17 17 18 19
16 16 16 16 16 15 15 16 16 16 16 16 16 17 17 17 16 16 16 16 16 16 16 16 17 17 16 16 17 17 17 17 17 16 16 16 16 16 17 17 17 17 17
17 17 17 17 17 16 16 16 16 16 16 16 17 18 18 17 17 16 16 16 16 16 16 16 16 17 17 17 17 17 17 18 18 17 17 17 16 16 17 17 17 17 17
18 18 18 17 17 17 17 17 18 17 17 16 17 18 18 17 17 17 17 17 17 17 17 17 17 17 17 17 17 18 18 19 19 18 18 17 17 17 17 17 17 17 17
19 19 19 19 19 18 19 19 19 18 18 18 18 18 18 18 18 18 18 17 18 18 17 17 17 17 17 17 17 17 18 18 19 19 18 17 17 17 17 18 17 17 17
20 20 21 21 21 20 20 20 20 19 19 19 19 19 18 19 19 19 19 19 18 18 18 18 18 17 17 17 17 17 17 17 18 19 18 18 18 18 18 18 17 17 17
21 21 21 22 21 21 21 20 20 20 20 21 21 20 20 20 20 20 20 20 19 19 18 18 18 18 18 17 18 17 17 17 18 18 18 18 18 17 18 18 17 16 16
22 23 22 22 22 22 21 21 20 21 22 22 22 22 21 22 21 20 20 20 20 20 19 19 19 18 18 18 18 18 18 18 18 18 18 18 18 18 18 17 17 16 16
22 23 23 23 23 22 22 21 21 21 22 23 22 22 22 22 23 23 21 20 19 19 19 19 19 18 18 18 18 18 18 18 18 18 18 18 18 18 17 17 17 17 17
23 23 24 24 23 23 22 22 22 22 22 23 23 22 22 22 22 22 22 21 20 20 19 19 19 18 18 18 18 18 18 18 18 18 18 18 17 17 17 18 18 18 17
24 24 24 25 24 24 24 24 23 23 23 23 22 21 21 21 21 21 22 22 22 21 20 19 19 19 18 18 18 18 18 18 18 19 19 19 18 18 18 19 18 19 19
25 25 25 25 24 23 23 23 23 23 22 22 22 21 21 21 21 21 21 21 21 22 22 21 20 20 20 20 20 19 18 18 18 19 19 20 20 19 19 19 19 19 19
26 26 26 24 24 24 23 23 23 22 23 23 23 23 23 22 22 21 21 22 22 22 22 23 23 23 22 22 21 20 20 20 20 20 20 20 21 21 20 20 20 20 21
27 27 26 25 25 25 24 24 24 24 24 24 24 24 24 23 23 23 23 23 23 23 23 24 25 24 24 24 23 23 23 23 22 22 21 22 22 22 22 22 22 22 22
28 27 27 26 26 26 26 25 25 25 25 25 25 25 25 25 24 24 24 24 24 24 25 25 25 25 26 26 26 26 26 25 25 24 24 24 24 24 23 24 24 24 24
28 28 28 27 27 27 26 26 26 27 27 27 27 27 27 26 25 25 26 26 25 26 26 26 27 27 27 27 27 27 27 27 27 27 26 27 26 25 25 25 25 26 26
28 28 28 28 27 27 27 27 27 27 27 27 27 27 27 27 27 27 27 26 27 27 27 27 27 28 28 28 28 28 28 28 29 29 29 29 28 28 27 27 27 27 27
Wind_Direction
274 276 277 277 275 274 275 275 275 276 279 284 285 283 283 283 284 286 285 285 283 283 282 279 274 271 270 267 267 270 268 267 267 266 266 266 265 264 264 262 262 261 262
272 273 276 275 272 277 279 276 280 279 281 284 283 282 281 282 284 286 286 285 282 280 282 281 278 273 270 267 267 267 268 269 269 266 266 267 266 265 265 263 261 261 262
269 270 275 277 274 277 283 281 282 281 283 283 281 282 282 282 285 286 286 285 283 282 282 283 278 275 270 266 266 267 266 265 266 266 267 268 267 266 265 265 264 263 262
268 272 274 275 276 278 280 280 281 280 280 281 279 281 282 283 284 285 284 285 284 283 282 281 280 277 271 266 265 267 268 267 267 267 269 271 270 268 267 267 266 265 263
270 273 273 274 275 276 277 277 280 280 277 278 278 277 279 282 284 285 284 285 284 284 283 280 278 277 271 268 267 267 268 267 266 267 270 272 271 270 269 267 267 266 264
268 274 276 275 275 275 275 277 280 280 279 280 277 277 280 282 284 285 285 284 284 285 283 281 281 278 273 268 267 266 265 266 267 268 269 272 273 272 270 268 267 267 265
269 274 278 275 273 275 276 277 277 278 279 281 278 276 280 281 283 285 286 284 284 285 286 284 284 281 274 270 268 265 265 266 268 269 270 271 275 276 275 271 268 269 267
268 271 275 275 273 276 277 275 274 277 279 280 279 276 278 280 280 283 285 284 284 285 286 284 285 282 277 273 270 266 266 267 268 270 271 273 275 278 277 275 271 269 268
267 269 272 273 272 274 274 275 274 276 278 280 280 279 280 281 280 282 285 285 284 285 285 281 282 281 278 275 273 269 267 268 271 272 272 274 275 275 275 277 276 272 267
270 271 272 271 271 271 272 276 277 278 278 279 280 280 282 282 283 283 283 283 283 283 285 282 280 280 278 276 275 271 268 267 270 271 273 275 276 277 275 279 278 276 270
268 271 271 271 270 270 273 278 280 279 278 279 279 278 281 283 283 283 283 283 283 283 283 284 281 280 278 277 275 272 268 266 268 271 273 274 275 277 279 281 279 276 273
266 268 271 272 271 271 273 277 279 279 280 280 280 279 280 280 282 282 282 283 284 284 283 283 282 280 278 276 275 273 269 266 267 269 271 272 274 277 278 280 279 274 272
266 269 270 273 274 274 275 275 276 277 277 279 281 280 278 279 280 280 280 281 282 283 283 282 283 281 279 276 275 273 270 267 267 269 271 272 274 276 277 280 280 275 272
266 268 268 272 274 275 277 275 274 275 278 277 279 279 277 277 279 279 278 280 281 281 283 283 283 282 281 278 277 276 271 267 268 269 271 271 273 275 277 279 280 277 273
267 268 270 272 275 276 277 277 275 276 277 278 279 279 277 277 279 280 277 278 279 280 279 280 282 282 280 279 278 277 273 268 267 267 269 270 271 273 277 279 280 278 273
269 270 272 272 273 274 275 276 273 274 275 275 278 277 278 278 278 280 280 277 278 279 278 279 280 280 281 280 277 276 274 270 267 267 269 270 271 273 276 278 278 276 273
269 270 273 272 271 273 272 273 273 273 274 275 275 277 279 280 280 278 279 279 277 277 277 276 278 278 279 280 278 275 275 271 268 268 268 270 272 273 275 275 275 274 274
269 269 270 271 270 272 272 272 271 274 274 274 275 277 279 281 282 280 277 277 277 274 275 275 276 277 277 278 278 276 276 273 268 267 268 270 271 271 271 273 275 274 273
269 268 268 268 268 269 270 270 271 274 275 274 275 276 279 280 281 279 277 276 276 275 277 276 274 275 276 276 277 277 277 273 268 268 269 269 271 273 272 272 274 275 274
268 268 269 267 266 267 268 270 271 273 274 275 275 276 278 279 279 279 276 275 274 274 276 278 274 273 274 276 277 277 276 275 271 269 268 267 270 273 273 272 272 275 274
269 269 269 266 265 266 269 270 271 273 273 274 275 277 277 278 278 277 276 275 275 275 276 276 275 274 274 274 276 277 275 275 272 270 269 268 270 273 273 272 272 274 274
269 268 267 267 267 267 268 270 271 272 274 274 274 275 276 276 276 276 274 274 275 274 274 274 273 273 273 274 274 275 275 274 272 270 269 270 273 273 271 273 275 275 274
268 269 268 266 266 267 269 272 272 273 274 274 273 274 274 275 274 274 274 274 274 275 273 272 272 272 272 272 272 271 272 273 271 268 268 270 272 273 272 273 274 275 275
267 268 267 265 266 267 268 270 272 273 274 275 274 274 274 274 273 272 273 274 275 275 273 273 272 270 270 270 271 269 269 270 269 268 269 270 271 273 273 273 274 275 275
269 268 266 264 265 267 268 270 273 275 275 275 275 274 274 273 273 273 272 273 275 275 276 275 273 272 270 270 269 270 269 268 268 268 268 269 270 273 273 271 272 274 276
270 268 264 264 266 268 269 270 272 275 277 277 276 276 274 274 274 275 274 273 274 275 276 276 274 274 274 271 269 268 268 269 268 267 267 268 270 272 273 272 271 273 274
Height
5849 5849 5848 5847 5846 5845 5844 5844 5843 5842 5841 5840 5839 5839 5838 5837 5836 5835 5834 5833 5832 5832 5831 5830 5829 5828 5828 5828 5827 5827 5827 5826 5826 5826 5826 5825 5825 5825 5825 5825 5825 5825 5825
5847 5846 5845 5844 5843 5842 5842 5841 5840 5839 5838 5837 5837 5836 5835 5834 5833 5832 5831 5830 5829 5828 5827 5826 5825 5825 5824 5824 5824 5824 5823 5823 5823 5822 5822 5822 5823 5822 5822 5821 5821 5821 5821
5843 5843 5842 5841 5840 5839 5839 5838 5837 5836 5836 5835 5834 5833 5832 5831 5830 5829 5828 5827 5826 5825 5824 5823 5821 5820 5820 5820 5820 5820 5819 5819 5819 5818 5819 5819 5818 5818 5818 5817 5817 5817 5817
5840 5839 5839 5838 5837 5836 5836 5835 5834 5833 5832 5832 5831 5830 5829 5828 5827 5826 5825 5823 5822 5821 5820 5819 5818 5817 5816 5816 5816 5816 5815 5815 5815 5815 5814 5814 5814 5814 5814 5814 5813 5813 5813
5836 5836 5835 5835 5834 5833 5832 5832 5831 5830 5829 5828 5828 5827 5826 5825 5824 5823 5821 5820 5819 5817 5816 5815 5814 5813 5812 5812 5812 5812 5812 5811 5811 5811 5810 5810 5809 5809 5809 5809 5809 5808 5808
5833 5832 5832 5831 5830 5829 5829 5828 5827 5827 5826 5825 5824 5823 5822 5821 5820 5819 5818 5817 5815 5814 5813 5811 5810 5809 5809 5808 5808 5808 5808 5807 5807 5807 5806 5806 5805 5805 5804 5804 5804 5804 5804
5829 5828 5828 5827 5826 5825 5825 5824 5824 5823 5822 5821 5820 5820 5819 5818 5817 5816 5814 5813 5812 5810 5809 5808 5807 5806 5805 5804 5804 5804 5803 5803 5803 5802 5802 5802 5801 5800 5800 5800 5799 5799 5798
5825 5824 5824 5823 5822 5822 5821 5820 5820 5820 5819 5818 5817 5816 5815 5814 5813 5812 5810 5809 5808 5807 5805 5804 5803 5802 5801 5800 5799 5799 5799 5799 5798 5798 5798 5797 5796 5796 5795 5795 5794 5793 5793
5820 5820 5819 5819 5818 5818 5817 5816 5816 5815 5815 5814 5813 5812 5811 5810 5809 5807 5806 5805 5804 5803 5801 5800 5799 5798 5797 5796 5795 5795 5794 5794 5794 5793 5793 5792 5792 5791 5790 5789 5788 5788 5787
5816 5816 5815 5815 5814 5814 5813 5812 5812 5811 5811 5810 5809 5808 5807 5805 5804 5803 5802 5801 5800 5799 5797 5796 5794 5793 5792 5791 5791 5790 5790 5790 5789 5789 5788 5788 5787 5786 5785 5784 5783 5782 5781
5812 5811 5811 5811 5810 5809 5809 5808 5808 5807 5806 5805 5804 5803 5802 5801 5800 5799 5798 5796 5795 5794 5793 5791 5790 5789 5787 5787 5786 5785 5785 5785 5784 5784 5784 5783 5782 5781 5780 5779 5778 5777 5776
5807 5807 5807 5806 5805 5805 5805 5804 5803 5802 5802 5801 5799 5799 5798 5797 5795 5794 5793 5792 5791 5789 5788 5787 5785 5784 5783 5782 5781 5780 5780 5779 5779 5779 5779 5778 5777 5776 5775 5774 5773 5772 5771
5802 5802 5802 5801 5801 5800 5799 5799 5798 5797 5796 5795 5794 5793 5792 5791 5790 5789 5788 5787 5786 5785 5783 5782 5780 5779 5778 5777 5776 5775 5775 5774 5774 5774 5773 5773 5772 5771 5771 5769 5768 5767 5767
5797 5797 5796 5796 5795 5795 5794 5793 5792 5792 5791 5790 5789 5788 5787 5786 5785 5784 5783 5782 5781 5779 5778 5777 5775 5774 5773 5772 5771 5770 5769 5769 5768 5768 5768 5768 5767 5767 5766 5765 5763 5762 5762
5791 5791 5791 5790 5790 5789 5788 5787 5787 5786 5785 5784 5783 5782 5781 5780 5779 5778 5777 5776 5775 5774 5773 5771 5770 5769 5768 5766 5766 5765 5764 5763 5763 5763 5763 5762 5762 5761 5761 5760 5759 5758 5757
5785 5785 5785 5784 5783 5783 5782 5782 5781 5780 5780 5779 5778 5777 5776 5775 5773 5772 5771 5770 5769 5768 5767 5766 5765 5764 5762 5761 5760 5760 5759 5758 5758 5757 5757 5757 5756 5756 5756 5755 5754 5753 5753
5778 5778 5778 5778 5777 5777 5776 5776 5775 5774 5774 5773 5772 5771 5770 5768 5767 5766 5765 5764 5763 5762 5761 5760 5759 5758 5757 5756 5755 5754 5753 5753 5752 5752 5752 5751 5751 5751 5750 5750 5749 5748 5748
5771 5771 5771 5771 5770 5770 5769 5769 5769 5768 5767 5766 5765 5764 5763 5762 5760 5759 5758 5757 5756 5755 5754 5753 5753 5752 5751 5750 5750 5748 5748 5747 5747 5747 5746 5746 5745 5745 5745 5744 5744 5743 5743
5764 5764 5764 5763 5763 5763 5762 5762 5762 5761 5760 5759 5758 5758 5756 5755 5754 5753 5752 5751 5750 5749 5748 5747 5747 5746 5745 5745 5744 5743 5742 5741 5741 5741 5741 5741 5740 5740 5739 5739 5739 5738 5738
5756 5756 5756 5756 5756 5756 5755 5755 5755 5754 5754 5753 5752 5751 5750 5748 5748 5746 5745 5745 5744 5743 5742 5741 5741 5740 5739 5739 5738 5737 5736 5736 5735 5735 5735 5735 5735 5734 5734 5733 5733 5732 5732
5749 5749 5749 5749 5749 5748 5748 5748 5748 5747 5746 5746 5745 5744 5743 5742 5741 5740 5739 5738 5737 5736 5736 5735 5735 5734 5733 5733 5732 5731 5730 5730 5729 5729 5729 5729 5729 5728 5728 5727 5727 5726 5725
5740 5741 5741 5741 5741 5741 5741 5741 5741 5740 5739 5738 5738 5737 5736 5735 5734 5733 5732 5731 5730 5730 5729 5728 5728 5727 5726 5726 5725 5725 5724 5724 5724 5723 5723 5723 5722 5722 5721 5721 5720 5720 5719
5732 5732 5732 5733 5733 5733 5733 5733 5733 5732 5731 5731 5730 5729 5728 5727 5726 5726 5725 5724 5723 5722 5722 5721 5720 5719 5719 5718 5718 5718 5718 5717 5717 5717 5716 5716 5716 5715 5715 5714 5713 5712 5712
5723 5723 5723 5724 5725 5725 5725 5725 5724 5724 5723 5723 5722 5721 5720 5719 5718 5718 5717 5716 5715 5715 5714 5713 5712 5711 5711 5710 5710 5710 5710 5709 5709 5709 5709 5709 5708 5708 5707 5707 5706 5705 5704
5713 5714 5715 5715 5716 5716 5716 5716 5716 5715 5715 5714 5713 5712 5712 5711 5710 5709 5709 5708 5707 5706 5705 5704 5703 5703 5702 5702 5701 5701 5701 5701 5701 5701 5701 5700 5700 5700 5699 5699 5698 5697 5696
5704 5704 5705 5706 5706 5707 5707 5707 5707 5706 5706 5705 5704 5703 5702 5702 5701 5701 5700 5699 5699 5697 5696 5695 5694 5694 5693 5692 5692 5692 5692 5691 5691 5691 5691 5691 5691 5691 5690 5690 5689 5688 5688